Location: Malvern Link
(52.1333°N, 2.3000°W)
Time: 03:24:58
(UTC+00:00)

Cosmos 1634 Rocket - Pass Details

Date: 03 December 2021
Orbit: 959 x 993 km, 82.9° (Epoch: 21 January)

Event Time Altitude Azimuth Distance (km) Brightness Sun altitude
Rises 18:55:27 0° 210° (SSW) 3,696 7.5 -25.9°
Reaches altitude 10° 18:58:05 10° 217° (SW) 2,753 6.8 -26.3°
Maximum altitude 19:04:07 45° 289° (WNW) 1,331 5.0 -27.2°
Drops below altitude 10° 19:10:12 10° 1° (N) 2,768 6.3 -28.1°
Sets 19:12:52 0° 8° (N) 3,718 7.0 -28.5°
